User: anonymous   Login
Location: Unspecified
(0.0000°N, 0.0000°E)
Time: 21:57:28
(UTC+00:00)
Language:

LAPAN A3 - Orbit

View from above orbital plane
View from above orbital plane
View from above satellite
View from above satellite

Ground track
Ground track

The orbit data is extracted from the following two-line orbital elements,

1 41603U 16040E   17082.82382631 +.00000281 +00000-0 +16571-4 0  9991
2 41603 097.4713 145.7811 0014394 019.1346 092.2476 15.19288489041694
Epoch (UTC): 23 March 2017 19:46:18
Eccentricity: 0.0014394
inclination: 97.4713°
perigee height: 498 km
apogee height: 518 km
right ascension of ascending node: 145.7811°
argument of perigee: 19.1346°
revolutions per day: 15.19288489
mean anomaly at epoch: 92.2476°
orbit number at epoch: 4169

The dashed part of the orbit path shows where the satellite is in the earth's shadow,  

DLR